Home   Weather   Owensboro   Past weeks

Flag for USA Past Weather in Owensboro, Kentucky, USA — Yesterday and Last 2 Weeks

Now
57 °F

Mostly cloudy.


Feels Like: 53 °F
Forecast: 55 / 60 °F
Wind: 20 mph from Southwest

Location: Owensboro / Daviess

Current Time: Jan 20, 2017 at 10:12:49 am

Latest Report: Jan 20, 2017 at 9:02 am


Visibility: 10 mi

Pressure: 29.75 "Hg

Humidity: 82%

Dew Point: 52 °F

Location of OwensboroLocation

Past Weather in Owensboro — Graph

°F

Owensboro Temperature Yesterday

Maximum temperature yesterday: 55 °F (at 8:56 pm)
Minimum temperature yesterday: 41 °F (at 12:56 am)
Average temperature yesterday: 49 °F

High & Low Weather Summary for the Past Weeks

 TemperatureHumidityPressure
High69 °F (Jan 12, 12:56 pm)100% (Jan 11, 11:07 am)30.86 "Hg (Jan 11, 11:07 am)
Low5 °F (Jan 7, 6:56 am)40% (Jan 8, 2:56 pm)29.63 "Hg (Jan 20, 1:08 am)
Average39 °F83%30.26 "Hg
* Reported Jan 5 8:32 am — Jan 20 8:56 am, Owensboro, Weather by CustomWeather, © 2017

Note: Actual official high and low records may vary slightly from our data, if they occured in-between our weather recording intervals... More about our weather records

Advertising

Owensboro Weather History for the Previous 24 Hours

Scroll right to see more
 ConditionsComfort  
Time TempWeatherWind HumidityBarometerVisibility
8:56 am
Fri, Jan 20
57 °FPartly sunny.20 mph81%29.78 "Hg10 mi
8:31 am55 °FMore clouds than sun.9 mph88%29.74 "Hg10 mi
7:56 am54 °FMore clouds than sun.5 mph93%29.77 "Hg10 mi
6:56 am55 °FFog.10 mph90%29.74 "Hg6 mi
5:56 am55 °FFog.10 mph93%29.72 "Hg6 mi
4:56 am56 °FLight rain. Overcast.8 mph93%29.71 "Hg10 mi
4:44 am55 °FLight rain. Mostly cloudy.8 mph94%29.67 "Hg10 mi
3:56 am57 °FOvercast.15 mph90%29.70 "Hg10 mi
2:56 am55 °FPartly cloudy.10 mph96%29.69 "Hg10 mi
1:56 am56 °FMostly cloudy.8 mph97%29.67 "Hg10 mi
1:08 am55 °FLight rain. Low clouds.8 mph100%29.63 "Hg10 mi
12:28 am55 °FLight rain. Mostly cloudy.9 mph100%29.64 "Hg10 mi
12:09 am54 °FLight rain. Fog.7 mph100%29.64 "Hg3 mi
11:56 pm
Thu, Jan 19
54 °FLight rain. Fog.6 mph97%29.68 "Hg1 mi
11:13 pm54 °FLight rain. Fog.5 mph100%29.65 "Hg1 mi
10:56 pm53 °FLight rain. Fog.No wind100%29.70 "Hg1 mi
10:33 pm54 °FLight rain. Fog.No wind100%29.67 "Hg2 mi
10:03 pm54 °FLight rain. Fog.No wind100%29.67 "Hg6 mi
8:56 pm55 °FLight rain. Fog.8 mph96%29.74 "Hg6 mi
7:56 pm54 °FLight rain. Fog.8 mph100%29.76 "Hg6 mi
6:56 pm54 °FRain. Fog.6 mph100%29.78 "Hg5 mi
5:56 pm54 °FRain. Fog.8 mph97%29.81 "Hg5 mi
4:56 pm53 °FLight rain. Low clouds.10 mph96%29.81 "Hg8 mi
3:56 pm53 °FLight rain. Mostly cloudy.8 mph93%29.82 "Hg9 mi
2:56 pm52 °FLight rain. Mostly cloudy.8 mph93%29.83 "Hg8 mi
1:56 pm51 °FLight rain. Mostly cloudy.7 mph92%29.85 "Hg9 mi
12:56 pm52 °FOvercast.7 mph83%29.89 "Hg10 mi
11:56 am50 °FOvercast.6 mph83%29.93 "Hg10 mi
10:56 am49 °FMostly cloudy.8 mph84%29.98 "Hg10 mi
Weather by CustomWeather, © 2017

See weather overviewHow to use our weather pages